{"data":{"norad_id":66023,"epoch":"2026-09-19T01:30:04.801248Z","epoch_age_seconds":227213,"freshness":"STALE","line1":"1 66023U 25232U   26262.06255557  .00017965  00000+0  54147-3 0  9995","line2":"2 66023  53.1583 284.1666 0002248  72.1473 287.9775 15.34404103 53061","mean_motion":15.34404103,"eccentricity":0.0002248,"inclination_deg":53.1583,"raan_deg":284.1666,"arg_perigee_deg":72.1473,"mean_anomaly_deg":287.9775,"bstar":0.00054147,"rev_number":5306,"period_min":93.84750713222,"perigee_km":461.15322710904,"apogee_km":464.22886339818,"semimajor_km":6840.8280452536,"source":"CELESTRAK","updated_at":"2026-09-21T09:00:35.771995Z"}}